Caribou, ME

3:23 PM EDT on May 22, 2018 (GMT -0400)
Caribou Municipal

Weather History for KCAR - September, 2013

Change the Weather History Date:

Thursday, September 5, 2013

  Actual Average Record
Temperature  
Mean Temperature 50 °F 59 °F  
Max Temperature 59 °F 70 °F 86 °F (1983)
Min Temperature 40 °F 48 °F 32 °F (1963)
Degree Days  
Heating Degree Days 15 7  
Month to date heating degree days 28 32  
Since 1 July heating degree days 142 186  
Cooling Degree Days 0 1  
Month to date cooling degree days 6 5  
Year to date cooling degree days 185 174  
Moisture  
Dew Point 39 °F    
Average Humidity 65    
Maximum Humidity 93    
Minimum Humidity 36    
Precipitation  
Precipitation T in 0.10 in 1.24 in (2011)
Month to date precipitation 2.25 0.52  
Year to date precipitation 35.27 25.26  
Snow  
Snow 0.00 in 0.00 in 0.00 in (2002)
Month to date snowfall 0.0 0.0  
Since 1 July snowfall 0.0 0.0  
Since 1 September snowfall 0.0 0.0  
Snow Depth 0.00 in    
Sea Level Pressure  
Sea Level Pressure 29.96 in    
Wind  
Wind Speed 5 mph (NW)    
Max Wind Speed 15 mph    
Max Gust Speed 22 mph    
Visibility 10 miles    
Events      
T = Trace of Precipitation, MM = Missing Value Source: NWS Daily Summary

Daily Weather History Graph

Daily Weather History Graph

Search for Another Location

Airport or City:

Astronomy

Sep. 05, 2013 Rise Set
Actual Time 5:57 AM EDT 7:03 PM EDT
Civil Twilight 5:25 AM EDT 7:34 PM EDT
Nautical Twilight 4:48 AM EDT 8:11 PM EDT
Astronomical Twilight 4:08 AM EDT 8:51 PM EDT
Moon 6:08 AM EDT (9/5) 6:47 PM EDT (9/5)
Length of Visible Light 14h 08m
Length of Day
13h 06m
New Moon, 0% of the Moon is Illuminated
Sep 5
New Moon
Sep 12
First Quarter
Sep 19
Full
Sep 26
Last Quarter
Oct 4
New

Hourly Weather History & Observations

Time (EDT) Temp. Windchill Dew Point Humidity Pressure Visibility Wind Dir Wind Speed Gust Speed Precip Events Conditions
12:54 AM 44.1 °F - 41.0 °F 89% 29.87 in 10.0 mi Calm Calm - N/A   Clear
1:54 AM 44.1 °F - 42.1 °F 93% 29.88 in 10.0 mi Calm Calm - N/A   Overcast
2:54 AM 45.0 °F - 43.0 °F 93% 29.88 in 10.0 mi Calm Calm - N/A   Mostly Cloudy
3:54 AM 46.9 °F - 44.1 °F 90% 29.88 in 10.0 mi Calm Calm - N/A   Overcast
4:54 AM 46.9 °F - 45.0 °F 93% 29.88 in 10.0 mi Calm Calm - N/A   Mostly Cloudy
5:54 AM 46.9 °F - 45.0 °F 93% 29.91 in 10.0 mi NW 4.6 mph - N/A   Mostly Cloudy
6:54 AM 46.9 °F - 44.1 °F 90% 29.92 in 10.0 mi Calm Calm - N/A   Partly Cloudy
7:54 AM 48.9 °F - 42.1 °F 77% 29.94 in 10.0 mi NW 3.5 mph - N/A   Overcast
8:54 AM 48.9 °F - 42.1 °F 77% 29.95 in 10.0 mi NNW 4.6 mph - N/A   Clear
9:54 AM 50.0 °F - 37.9 °F 63% 29.96 in 10.0 mi NW 8.1 mph - N/A   Partly Cloudy
10:54 AM 54.0 °F - 39.9 °F 59% 29.95 in 10.0 mi NW 8.1 mph - N/A   Partly Cloudy
11:54 AM 54.0 °F - 37.0 °F 53% 29.94 in 10.0 mi NW 8.1 mph - N/A   Mostly Cloudy
12:54 PM 55.0 °F - 35.1 °F 47% 29.94 in 10.0 mi NW 5.8 mph - N/A   Mostly Cloudy
1:54 PM 55.9 °F - 34.0 °F 44% 29.93 in 10.0 mi Variable 5.8 mph - N/A   Mostly Cloudy
2:54 PM 55.9 °F - 33.1 °F 42% 29.93 in 10.0 mi NW 10.4 mph 17.3 mph N/A   Mostly Cloudy
3:54 PM 57.0 °F - 30.9 °F 37% 29.94 in 10.0 mi WNW 10.4 mph - N/A   Mostly Cloudy
4:54 PM 55.9 °F - 34.0 °F 44% 29.96 in 10.0 mi WNW 9.2 mph - N/A   Mostly Cloudy
5:54 PM 54.0 °F - 36.0 °F 51% 29.97 in 10.0 mi WNW 6.9 mph - N/A   Scattered Clouds
6:54 PM 51.1 °F - 37.0 °F 59% 30.00 in 10.0 mi NNW 9.2 mph - N/A   Overcast
7:54 PM 50.0 °F - 37.9 °F 63% 30.03 in 10.0 mi NNW 11.5 mph - 0.00 in   Overcast
8:54 PM 48.0 °F - 37.0 °F 66% 30.05 in 10.0 mi NNW 6.9 mph - N/A   Overcast
9:54 PM 44.1 °F - 37.9 °F 79% 30.06 in 10.0 mi Calm Calm - N/A   Clear
10:54 PM 42.1 °F 40.2 °F 37.0 °F 82% 30.07 in - WSW 3.5 mph - N/A   Clear
11:54 PM 42.1 °F - 37.0 °F 82% 30.08 in - Calm Calm - N/A   Clear